Weather History for San Nicolas Island, CA

Change the Weather History Date:

Thursday, December 13, 2012

  Actual Average Record
Temperature  
Mean Temperature 60 °F -  
Max Temperature 66 °F 59 °F 71 °F (2010)
Min Temperature 55 °F 50 °F 46 °F (2001)
Degree Days  
Heating Degree Days 4    
Growing Degree Days 10 (Base 50)    
Moisture  
Dew Point 44 °F    
Average Humidity 53    
Maximum Humidity 67    
Minimum Humidity 42    
Precipitation  
Precipitation 0.00 in - - ()
Sea Level Pressure  
Sea Level Pressure 29.80 in    
Wind  
Wind Speed 16 mph (WNW)    
Max Wind Speed 23 mph    
Max Gust Speed 29 mph    
Visibility 9 miles    
Events Rain    
Averages and records for this station are not official NWS values.
T = Trace of Precipitation, MM = Missing Value Source: NWS Daily Summary

Daily Weather History Graph

Daily Weather History Graph

Search for Another Location

Airport:

Trip Planner

Search our weather history database for the weather conditions in past years. The results will help you decide how hot, cold, wet, or windy it might be!

Date:

Astronomy

Dec. 13, 2012 Rise Set
Actual Time 6:53 AM PST 4:51 PM PST
Civil Twilight 6:25 AM PST 5:19 PM PST
Nautical Twilight 5:54 AM PST 5:50 PM PST
Astronomical Twilight 5:24 AM PST 6:20 PM PST
Moon 7:07 AM PST (12/13) 5:38 PM PST (12/13)
Length of Visible Light 10h 53m
Length of Day
9h 58m
New Moon, 0% of the Moon is Illuminated
Dec 13
New Moon
Dec 19
First Quarter
Dec 28
Full
Jan 4
Last Quarter
Jan 11
New

Hourly Weather History & Observations

Time (PST) Temp. Dew Point Humidity Pressure Visibility Wind Dir Wind Speed Gust Speed Precip Events Conditions
12:53 AM 62.1 °F 46.0 °F 56% 29.82 in 10.0 mi WNW 12.7 mph - 0.00 in Rain Light Rain
1:53 AM 62.1 °F 45.0 °F 53% 29.83 in 10.0 mi NW 15.0 mph - 0.00 in Rain Light Rain
2:53 AM 62.1 °F 46.0 °F 56% 29.81 in 10.0 mi NW 15.0 mph - 0.00 in Rain Light Rain
3:53 AM 62.1 °F 45.0 °F 53% 29.80 in 10.0 mi WNW 15.0 mph - 0.00 in Rain Light Rain
4:53 AM 64.0 °F 46.0 °F 52% 29.80 in 10.0 mi NW 15.0 mph - 0.00 in Rain Light Rain
5:53 AM 55.9 °F 44.1 °F 64% 29.80 in 7.0 mi WNW 13.8 mph - 0.00 in   Scattered Clouds
6:53 AM 55.9 °F 43.0 °F 62% 29.81 in 7.0 mi WNW 16.1 mph - N/A   Scattered Clouds
7:53 AM 57.6 °F 44.1 °F 61% 29.81 in 7.0 mi WNW 13.8 mph - N/A   Partly Cloudy
8:53 AM 59.7 °F 43.0 °F 54% 29.81 in 7.0 mi WNW 18.4 mph - N/A   Scattered Clouds
9:53 AM 64.9 °F 45.0 °F 48% 29.83 in 10.0 mi WNW 18.4 mph - N/A   Clear
10:13 AM 66.2 °F 42.8 °F 43% 29.84 in 7.0 mi West 19.6 mph 25.3 mph N/A   Scattered Clouds
10:53 AM 66.9 °F 43.0 °F 42% 29.83 in 7.0 mi West 15.0 mph 23.0 mph N/A   Scattered Clouds
11:53 AM 65.1 °F 51.1 °F 60% 29.80 in 7.0 mi West 21.9 mph 27.6 mph N/A   Scattered Clouds
12:53 PM 64.8 °F 50.0 °F 59% 29.78 in 7.0 mi West 19.6 mph 27.6 mph N/A   Scattered Clouds
1:53 PM 63.3 °F 52.2 °F 67% 29.76 in 7.0 mi WNW 19.6 mph 28.8 mph N/A   Scattered Clouds
2:53 PM 64.0 °F 50.9 °F 62% 29.76 in 7.0 mi West 23.0 mph 28.8 mph N/A   Scattered Clouds
4:53 PM 60.1 °F 41.0 °F 49% 29.75 in 10.0 mi WNW 19.6 mph - N/A   Partly Cloudy
5:53 PM 61.0 °F 41.0 °F 48% 29.76 in 10.0 mi WNW 15.0 mph - N/A   Scattered Clouds
6:53 PM 60.1 °F 39.9 °F 47% 29.78 in 10.0 mi WNW 16.1 mph 25.3 mph N/A   Partly Cloudy
7:53 PM 61.0 °F 41.0 °F 48% 29.78 in 10.0 mi WNW 15.0 mph - N/A   Scattered Clouds
8:53 PM 60.1 °F 39.9 °F 47% 29.78 in 10.0 mi WNW 17.3 mph - N/A   Partly Cloudy
9:53 PM 59.0 °F 39.0 °F 48% 29.78 in 10.0 mi WNW 16.1 mph - N/A   Clear
10:53 PM 61.0 °F 39.9 °F 46% 29.78 in 10.0 mi West 16.1 mph - N/A   Clear
11:53 PM 59.0 °F 39.0 °F 48% 29.78 in 10.0 mi West 15.0 mph - N/A   Clear